Temp
12 11 11 11 10 10 10 10 9 9 9 9 9 8 8 7 7 6 6 6 5 5 5 5 5 5 6 6 6 6 5 5 5 5 5 5 5 5 5 5 5 6 6 6 6 6 6 5 5 5 5 5 5 4 4 4 4 4 4 4 4 4 4 4 5 5 5 5 5
11 11 11 11 10 10 10 9 9 9 9 9 9 8 8 7 6 6 5 5 5 5 5 5 5 5 5 5 5 5 5 5 5 5 5 5 5 5 5 5 5 5 5 5 5 5 5 5 5 5 4 4 4 4 3 3 4 4 4 3 4 4 4 4 4 4 4 4 4
11 11 10 10 10 10 10 9 9 9 9 8 8 8 7 7 6 6 6 6 6 5 5 5 5 5 5 5 5 4 4 4 4 4 4 4 4 5 5 5 5 5 5 5 5 5 5 4 4 4 4 3 3 3 3 3 3 3 3 3 3 3 3 3 3 3 3 3 3
10 10 10 10 10 9 9 9 8 8 8 7 7 7 7 6 6 6 6 6 6 6 5 5 5 5 5 5 4 4 4 4 4 4 4 4 4 4 4 4 4 4 4 4 4 4 4 4 4 3 3 3 2 2 2 2 2 2 2 2 2 1 1 1 1 1 1 1 1
10 9 9 9 9 9 9 8 8 8 7 7 7 7 6 6 6 6 6 6 6 6 6 5 5 5 5 5 5 5 4 4 4 4 4 4 4 4 4 4 4 4 4 4 3 3 3 3 3 3 2 2 2 1 2 2 2 1 1 1 1 0 0 -0 -0 -0 -0 -0 -0
9 9 9 9 9 9 8 8 8 7 7 7 7 6 6 6 6 6 6 6 6 5 6 5 5 5 5 5 5 5 4 4 4 4 4 4 3 3 3 3 3 3 3 3 3 2 2 2 2 2 2 1 1 1 1 1 1 1 1 0 -0 -0 -0 -1 -1 -1 -1 -1 -1
9 9 8 8 8 8 8 8 7 7 7 7 6 6 6 6 6 6 5 5 5 5 5 5 5 5 4 4 4 4 4 4 4 3 3 3 3 3 3 3 3 3 2 2 2 2 2 2 2 1 1 1 1 1 1 1 1 0 0 -0 -1 -1 -1 -1 -1 -1 -1 -1 -1
8 8 8 8 8 8 7 7 7 7 7 6 6 6 6 5 5 5 5 5 5 4 4 4 4 4 4 4 4 4 4 3 3 3 3 3 3 2 2 2 2 2 2 2 2 1 1 1 1 1 1 1 0 0 0 0 0 -0 -0 -1 -1 -1 -1 -1 -1 -1 -1 -1 -1
8 8 8 8 7 7 7 7 7 6 6 6 5 5 5 5 5 5 5 4 4 4 4 4 4 4 4 3 3 3 3 3 3 2 2 2 2 2 2 2 2 2 2 2 2 1 1 1 1 1 1 0 -0 -0 -0 -0 -1 -1 -1 -1 -1 -1 -1 -1 -1 -1 -1 -1 -1
8 7 7 7 7 7 7 6 6 6 6 5 5 5 5 5 5 4 4 4 4 4 4 4 4 3 3 3 3 3 3 2 2 2 2 2 2 2 2 2 2 2 2 2 2 1 1 1 1 1 1 0 -0 -0 -0 -1 -1 -1 -1 -1 -1 -1 -1 -1 -1 -1 -1 -1 -1
7 7 7 7 6 6 6 6 6 6 5 5 5 5 4 4 4 4 4 4 4 3 3 3 3 3 3 3 3 2 2 2 2 2 2 2 2 2 2 2 2 2 2 2 1 1 1 1 1 1 1 0 -0 -0 -1 -1 -1 -1 -1 -1 -1 -1 -1 -1 -1 -1 -1 -1 -1
7 7 7 6 6 6 6 6 5 5 5 5 5 5 4 4 4 4 4 3 3 3 3 3 3 3 2 2 2 2 2 2 1 1 1 1 1 1 1 1 1 1 1 1 1 1 1 1 1 1 1 0 -0 -0 -1 -1 -1 -1 -1 -1 -1 -1 -1 -1 -1 -1 -1 -1 -1
7 7 6 6 6 6 5 5 5 5 5 5 5 4 4 4 3 3 3 3 3 2 2 2 2 2 2 2 2 1 1 1 1 1 1 1 1 1 1 1 1 1 1 1 1 1 1 1 1 1 1 0 0 -0 -0 -0 -0 -0 -1 -1 -1 -1 -1 -2 -2 -2 -2 -2 -2
6 6 6 6 5 5 5 5 5 5 5 4 4 4 4 3 3 3 3 2 2 2 2 2 2 2 2 1 1 1 1 1 1 1 1 1 1 1 1 1 1 1 1 1 1 1 1 1 1 1 1 0 0 0 -0 -0 -0 -0 -0 -0 -1 -1 -1 -1 -2 -2 -2 -2 -2
6 6 6 5 5 5 5 5 4 4 4 4 4 3 3 3 3 2 2 2 2 2 2 2 2 1 1 1 1 1 1 1 1 1 1 1 1 1 1 1 1 1 1 1 1 0 0 0 0 0 0 0 0 0 -0 -0 -0 -0 -0 -0 -0 -1 -1 -1 -1 -2 -2 -2 -2
6 6 5 5 5 5 5 4 4 4 4 4 3 3 3 2 2 2 2 2 2 1 1 1 1 1 1 1 1 1 1 1 1 1 1 1 1 1 1 1 1 1 1 1 1 0 0 0 0 0 0 0 -0 -0 -0 -0 -0 -0 -0 -0 -0 -1 -1 -1 -1 -2 -2 -2 -2
6 5 5 5 5 5 4 4 4 4 3 3 3 3 2 2 2 2 2 2 1 1 1 1 1 1 1 1 1 1 1 1 1 1 1 1 1 1 1 1 1 1 1 1 1 0 0 -0 -0 -0 -0 -0 -0 -0 -1 -1 -1 -1 -1 -1 -1 -1 -1 -1 -1 -1 -2 -2 -2
5 5 5 5 5 4 4 4 4 3 3 3 2 2 2 2 2 2 2 1 1 1 1 1 1 1 1 1 1 1 1 1 1 1 1 1 1 1 1 1 1 1 1 1 1 1 0 -0 -1 -1 -1 -1 -1 -1 -1 -1 -1 -1 -1 -1 -1 -1 -1 -1 -1 -1 -1 -2 -2
5 5 5 4 4 4 4 3 3 3 3 2 2 2 2 2 2 2 2 1 1 1 1 1 1 1 1 1 1 1 1 1 1 1 1 1 1 1 1 1 1 1 1 1 1 1 1 0 -0 -1 -1 -1 -1 -1 -1 -1 -1 -1 -1 -1 -1 -1 -1 -1 -1 -1 -1 -2 -2
5 4 4 4 4 4 3 3 3 3 2 2 2 2 2 2 2 1 1 1 1 1 1 1 1 1 1 1 1 1 1 1 1 1 1 1 1 1 1 1 1 1 1 1 1 1 1 0 -0 -0 -1 -1 -1 -1 -1 -1 -1 -1 -1 -1 -1 -1 -1 -1 -1 -1 -1 -2 -2
4 4 4 4 4 4 3 3 3 2 2 2 2 2 2 1 1 1 1 1 1 1 1 1 1 1 1 1 1 1 1 1 1 1 1 1 1 1 1 1 1 1 1 1 1 1 1 1 0 0 -0 -1 -1 -1 -1 -1 -1 -1 -1 -1 -1 -1 -1 -1 -1 -1 -2 -2 -2
4 4 4 4 4 3 3 3 3 2 2 2 2 2 2 1 1 1 1 1 1 1 1 1 1 1 1 1 1 1 1 1 1 1 1 1 1 1 1 1 1 1 1 1 1 1 1 1 0 0 0 -0 -1 -1 -1 -1 -1 -1 -1 -1 -1 -1 -1 -1 -2 -2 -2 -2 -2
4 4 4 4 3 3 3 3 3 2 2 2 2 2 1 1 1 1 1 1 1 1 1 1 1 1 1 1 1 1 1 1 1 1 1 1 1 1 1 1 1 1 1 1 1 1 1 0 0 0 0 -0 -0 -1 -1 -1 -1 -1 -1 -1 -1 -1 -2 -2 -2 -2 -2 -2 -2
4 4 4 3 3 3 3 3 2 2 2 2 2 2 2 1 1 1 1 1 1 1 1 1 1 1 1 1 1 1 1 1 1 1 1 1 1 1 1 1 1 1 1 1 0 0 0 0 0 0 -0 -0 -0 -1 -1 -1 -1 -1 -1 -1 -2 -2 -2 -2 -2 -2 -2 -2 -2
4 4 3 3 3 3 3 3 2 2 2 2 2 2 2 2 2 2 2 2 2 1 1 1 1 1 1 1 1 1 1 1 1 1 1 1 1 1 1 1 1 1 1 0 0 0 0 0 0 -0 -0 -0 -1 -1 -1 -1 -1 -2 -2 -2 -2 -2 -2 -2 -2 -2 -2 -2 -2
4 3 3 3 3 3 3 2 2 2 2 2 2 2 2 2 2 2 2 2 2 2 2 2 1 1 1 1 1 1 1 1 1 1 1 1 1 1 1 1 1 1 0 0 0 0 0 -0 -0 -0 -1 -1 -1 -1 -1 -1 -2 -2 -2 -2 -2 -2 -3 -3 -3 -3 -3 -3 -3
4 3 3 3 3 3 3 2 2 2 2 2 2 2 2 2 2 2 2 2 2 2 2 2 2 1 1 1 1 1 1 1 1 1 1 1 1 1 1 1 0 0 0 0 0 -0 -0 -0 -0 -1 -1 -1 -1 -1 -2 -2 -2 -2 -3 -3 -3 -3 -3 -3 -3 -3 -3 -3 -3
3 3 3 3 3 3 2 2 2 2 2 2 2 2 2 2 2 2 2 2 2 2 2 2 2 2 1 1 1 1 1 1 1 1 1 1 1 0 0 0 0 0 0 -0 -0 -0 -0 -1 -1 -1 -1 -1 -2 -2 -2 -2 -3 -3 -3 -3 -3 -3 -3 -4 -4 -4 -4 -4 -3
3 3 3 3 3 3 2 2 2 2 2 2 2 2 2 2 2 2 2 2 2 2 2 2 2 2 1 1 1 1 1 1 1 1 1 0 0 0 0 0 0 -0 -0 -0 -0 -0 -1 -1 -1 -1 -1 -2 -2 -2 -2 -3 -3 -3 -3 -4 -4 -4 -4 -4 -4 -4 -4 -4 -4
3 3 3 3 3 2 2 2 2 2 2 2 2 2 2 2 2 2 2 2 2 2 2 2 2 2 1 1 1 1 1 1 1 0 0 0 0 0 0 0 -0 -0 -0 -0 -0 -1 -1 -1 -1 -1 -2 -2 -2 -2 -3 -3 -3 -3 -4 -4 -4 -4 -4 -4 -4 -5 -5 -5 -5
3 3 3 3 3 2 2 2 2 2 2 2 2 2 2 2 2 2 2 1 1 1 1 1 1 1 1 1 1 1 1 1 0 0 0 0 0 0 -0 -0 -0 -0 -0 -0 -1 -1 -1 -1 -1 -2 -2 -2 -2 -3 -3 -3 -3 -4 -4 -4 -4 -4 -4 -4 -5 -5 -5 -5 -5
3 3 3 3 3 2 2 2 2 2 2 2 2 2 2 2 2 2 2 1 1 1 1 1 1 1 1 1 1 1 1 1 0 0 0 0 0 -0 -0 -0 -0 -0 -1 -1 -1 -1 -1 -1 -2 -2 -2 -2 -3 -3 -3 -3 -4 -4 -4 -4 -4 -4 -4 -5 -5 -5 -5 -5 -5
3 3 3 3 2 2 2 2 2 2 2 2 2 2 2 2 2 2 1 1 1 1 1 1 1 1 1 1 1 1 1 1 0 0 0 0 -0 -0 -0 -0 -1 -1 -1 -1 -1 -1 -1 -2 -2 -2 -3 -3 -3 -3 -3 -4 -4 -4 -4 -4 -4 -4 -5 -5 -5 -5 -5 -5 -6
3 3 3 3 2 2 2 2 2 2 2 2 2 2 2 2 2 2 1 1 1 1 1 1 1 1 1 1 1 1 1 0 0 0 0 -0 -0 -0 -0 -1 -1 -1 -1 -1 -2 -2 -2 -2 -2 -2 -3 -3 -3 -3 -4 -4 -4 -4 -4 -4 -4 -5 -5 -5 -5 -5 -5 -6 -6
3 3 3 2 2 2 2 2 2 2 2 2 2 2 2 2 2 2 1 1 1 1 1 1 1 1 1 1 1 1 1 0 0 0 -0 -0 -0 -1 -1 -1 -1 -1 -1 -2 -2 -2 -2 -2 -2 -3 -3 -3 -3 -4 -4 -4 -4 -4 -4 -5 -5 -5 -5 -5 -5 -6 -6 -6 -6
3 3 3 2 2 2 2 2 2 2 2 2 2 2 2 2 1 1 1 1 1 1 1 1 1 1 1 1 1 1 0 0 0 -0 -0 -0 -1 -1 -1 -1 -2 -2 -2 -2 -3 -3 -3 -3 -3 -3 -3 -3 -4 -4 -4 -4 -4 -5 -5 -5 -5 -5 -5 -6 -6 -6 -6 -6 -6
3 3 2 2 2 2 2 2 2 2 2 2 2 1 1 1 1 1 1 1 1 1 1 1 1 1 1 1 1 0 0 0 -0 -0 -0 -1 -1 -1 -1 -2 -2 -2 -3 -3 -3 -3 -3 -3 -3 -3 -4 -4 -4 -4 -5 -5 -5 -5 -5 -5 -6 -6 -6 -6 -6 -6 -7 -7 -7
3 2 2 2 2 2 2 2 2 2 1 1 1 1 1 1 1 1 1 1 1 1 1 1 1 1 1 1 0 0 0 -0 -0 -1 -1 -1 -1 -2 -2 -2 -3 -3 -3 -3 -4 -4 -4 -4 -4 -4 -4 -4 -5 -5 -5 -5 -5 -6 -6 -6 -6 -6 -6 -7 -7 -7 -7 -7 -7
3 2 2 2 2 2 2 2 1 1 1 1 1 1 1 1 1 1 1 1 1 1 1 1 0 0 0 0 0 0 -0 -0 -1 -1 -1 -1 -2 -2 -2 -3 -3 -3 -3 -4 -4 -4 -4 -4 -5 -5 -5 -5 -5 -6 -6 -6 -6 -6 -6 -7 -7 -7 -7 -7 -7 -8 -8 -8 -8
2 2 2 2 2 2 2 1 1 1 1 1 1 1 1 1 1 1 1 1 1 1 1 1 1 0 0 0 0 -0 -0 -1 -1 -1 -1 -2 -2 -2 -3 -3 -3 -3 -4 -4 -4 -4 -5 -5 -5 -5 -5 -6 -6 -6 -6 -6 -7 -7 -7 -7 -7 -7 -8 -8 -8 -8 -8 -8 -8
2 2 2 2 2 2 1 1 1 1 1 1 1 1 1 1 1 1 1 1 1 1 1 1 1 0 0 0 -0 -0 -0 -1 -1 -1 -1 -2 -2 -3 -3 -3 -4 -4 -4 -4 -4 -5 -5 -5 -5 -5 -6 -6 -6 -7 -7 -7 -7 -7 -7 -8 -8 -8 -8 -8 -8 -8 -9 -9 -9
Height
832 832 832 832 832 832 831 831 831 830 830 829 828 828 827 826 826 825 824 823 823 822 822 821 820 819 818 817 816 816 814 813 812 811 810 809 807 806 805 803 802 800 799 797 796 794 793 792 791 790 788 787 786 784 782 781 780 778 777 776 776 774 773 772 772 771 771 769 768
833 833 833 833 832 832 831 831 831 830 830 829 829 828 827 826 826 825 824 824 823 823 822 821 820 820 819 818 817 816 815 813 812 811 810 808 807 806 804 803 801 800 798 796 795 794 792 791 790 789 788 787 786 785 782 781 779 778 777 776 776 775 774 772 771 771 770 769 767
834 834 833 833 832 832 831 831 831 830 830 829 829 828 827 826 826 826 825 824 824 823 822 821 820 819 819 818 816 815 814 813 812 811 809 808 807 806 804 802 801 800 798 796 795 793 791 790 789 788 787 787 786 785 783 781 779 778 777 776 776 775 774 773 772 771 770 768 766
834 834 834 833 833 832 832 832 831 831 830 830 829 828 828 827 827 826 826 825 824 823 822 821 820 819 818 817 816 815 814 813 811 810 809 807 806 805 803 802 801 799 797 796 794 792 791 790 788 787 787 786 786 784 783 781 780 779 778 777 776 775 775 774 774 772 771 768 766
835 835 834 834 833 833 833 832 832 831 830 830 829 829 828 828 827 826 826 825 824 823 822 821 820 819 817 816 815 814 812 811 811 809 808 806 805 804 803 801 800 799 797 796 794 792 791 790 788 787 786 786 785 784 783 782 781 779 778 777 776 775 775 775 774 773 771 769 766
835 835 835 834 834 833 833 832 832 831 831 830 830 829 828 828 827 826 826 825 824 823 822 821 819 818 816 815 814 812 811 810 809 808 807 806 804 803 802 801 800 798 797 796 794 792 791 790 789 788 787 786 785 784 783 782 781 780 779 778 776 776 775 775 774 773 772 770 767
836 835 835 835 834 834 833 833 832 831 831 830 830 829 829 828 827 827 826 825 824 822 821 820 819 817 816 814 813 812 811 810 808 807 806 805 804 803 802 801 799 798 797 796 794 793 791 790 789 788 787 786 786 785 784 783 781 781 779 778 777 777 776 775 774 773 771 770 768
836 836 835 835 834 834 833 833 832 831 831 831 830 830 829 828 827 826 825 824 823 822 821 820 818 817 816 814 813 811 810 809 808 807 806 805 804 803 801 801 799 798 797 796 794 793 792 791 790 789 788 787 786 786 785 784 782 781 780 779 778 777 776 775 774 773 771 770 768
836 836 835 835 834 834 833 833 832 831 831 831 830 830 829 828 827 826 825 824 822 821 820 819 818 817 816 814 813 811 810 809 808 807 806 805 804 803 802 801 800 798 797 796 795 794 793 792 791 790 789 788 787 786 786 784 783 782 781 779 778 777 776 776 774 773 771 770 768
836 836 835 835 834 834 833 832 832 831 831 830 830 829 828 827 826 825 824 823 822 821 820 819 817 816 815 814 813 812 811 809 808 807 806 805 804 803 802 801 800 799 798 797 796 795 794 792 791 791 790 789 788 787 786 785 784 782 781 780 779 778 776 776 774 773 771 770 768
836 836 835 835 834 834 833 832 831 831 830 830 829 828 828 827 826 825 824 823 822 821 820 819 817 816 815 814 813 812 811 809 808 807 806 806 805 804 803 802 801 800 799 798 796 795 794 793 792 791 790 789 788 787 786 785 784 782 781 780 779 778 776 775 774 773 771 770 768
836 836 835 835 834 833 832 832 831 830 830 829 829 828 827 826 826 825 824 822 821 821 820 819 817 816 815 814 813 811 811 810 808 808 807 806 805 804 803 802 801 801 799 798 797 796 795 794 793 792 791 790 789 787 786 785 783 782 781 780 779 778 776 775 774 773 771 770 769
836 836 835 835 834 833 832 831 831 830 830 829 828 828 827 826 825 824 823 822 821 820 819 818 817 816 815 813 812 811 811 810 809 808 807 806 805 804 803 803 802 801 800 799 798 796 796 794 793 792 791 790 789 788 786 785 783 782 781 780 779 778 776 775 774 773 772 771 769
836 836 835 834 834 833 832 831 831 830 829 829 828 827 826 826 825 824 823 822 821 820 819 818 817 816 815 813 812 811 811 810 809 808 807 806 806 805 804 803 802 801 800 799 798 797 796 795 794 793 792 791 789 788 786 785 784 783 781 781 779 778 777 776 774 773 772 771 769
836 836 835 834 833 833 832 831 831 830 829 828 828 827 826 825 824 824 823 822 821 820 819 817 816 815 814 813 812 811 811 810 809 808 807 806 806 805 804 803 802 801 800 799 798 797 796 795 794 793 792 791 789 788 787 786 785 784 782 781 780 779 777 776 775 773 772 771 769
836 835 835 834 833 833 832 831 831 830 829 828 827 826 826 825 824 823 822 821 820 819 818 817 816 815 814 813 812 811 811 810 809 808 807 806 805 804 803 802 801 801 800 799 798 797 796 795 794 793 792 791 790 788 787 786 785 784 783 782 781 779 778 776 775 773 772 771 769
836 836 835 834 833 833 832 831 831 830 829 828 827 826 825 824 824 823 822 821 820 819 818 817 816 815 814 813 812 811 811 809 809 808 807 806 805 804 803 802 801 800 799 798 797 796 796 795 794 793 792 791 790 789 788 787 786 785 784 782 781 780 778 777 775 774 772 771 769
836 835 835 834 833 832 832 831 830 829 828 827 826 826 825 824 823 822 821 821 820 819 817 817 816 815 814 813 812 811 810 809 808 807 807 806 805 804 803 802 801 800 799 798 797 796 795 794 793 792 791 791 790 789 788 787 786 785 784 782 781 780 779 777 776 774 772 771 770
836 835 835 834 833 832 831 831 830 829 828 827 826 825 825 824 823 822 821 820 819 818 817 816 816 815 814 813 811 811 810 809 808 807 806 806 805 804 803 802 801 800 799 797 796 796 795 794 793 792 791 791 790 789 788 787 786 785 784 782 781 780 779 777 776 775 773 771 770
836 835 834 834 833 832 831 830 829 829 828 827 826 825 824 823 823 822 821 820 819 818 817 816 815 814 813 812 811 810 809 808 807 806 806 805 804 803 802 801 800 799 798 797 796 796 794 793 793 792 791 790 789 788 787 786 786 785 783 782 781 780 779 778 776 775 774 772 771
836 835 834 833 833 832 831 830 829 828 827 826 826 825 824 823 822 821 821 820 819 818 817 816 815 814 813 812 811 810 809 808 807 806 805 805 804 803 802 801 800 799 798 797 796 795 794 793 792 791 791 790 789 788 787 786 785 784 783 782 781 780 779 778 776 775 774 773 772
835 835 834 833 832 831 831 830 829 828 827 826 825 824 824 823 822 821 821 820 819 818 816 816 815 814 813 812 811 810 809 808 807 806 805 804 803 803 802 801 800 799 798 797 796 795 794 793 792 791 790 789 788 787 786 786 785 784 783 782 781 780 779 778 777 776 775 774 773
835 834 833 833 832 831 830 829 828 827 826 826 825 824 823 822 822 821 820 819 818 817 816 816 815 814 813 811 811 809 808 807 806 806 805 804 803 802 801 800 799 798 797 796 796 794 793 792 791 790 789 789 788 787 786 785 784 783 782 781 781 780 779 778 777 776 775 774 773
835 834 833 832 831 831 830 829 828 827 826 826 825 824 823 822 821 821 820 819 818 817 816 815 814 813 812 811 811 809 808 807 806 805 804 803 802 801 801 800 799 798 797 796 795 794 793 791 791 790 789 788 787 786 785 784 783 782 781 781 780 779 778 778 777 776 775 774 773
834 833 832 832 831 830 829 828 828 827 826 825 825 824 823 822 821 820 819 818 817 816 816 815 814 813 812 811 810 809 808 807 806 805 804 803 802 801 800 799 798 797 796 795 794 793 792 791 790 789 788 787 787 786 785 784 783 782 781 780 779 779 778 777 776 776 775 774 773
834 833 832 831 831 830 829 828 827 827 826 825 824 823 822 821 821 820 819 818 817 816 815 814 813 812 811 810 809 808 807 806 805 804 803 802 801 800 799 798 797 796 795 794 793 792 791 790 789 788 788 787 786 786 785 784 783 782 781 780 779 778 778 777 776 776 775 774 773
833 832 831 831 830 829 829 828 827 826 826 825 824 823 822 821 820 819 818 817 816 815 814 813 812 811 810 809 808 807 806 806 805 804 802 801 801 799 798 797 796 795 794 793 792 791 791 790 789 788 787 786 786 785 785 784 783 782 781 780 779 778 777 777 776 775 774 773 773
832 831 831 830 829 829 828 827 826 826 825 824 823 822 821 821 820 819 818 817 816 815 814 812 811 811 809 808 807 806 806 805 804 803 802 801 800 799 797 796 796 795 794 793 792 791 790 789 788 787 787 786 786 785 784 783 782 781 781 780 779 778 777 776 776 775 774 773 772
831 831 830 830 829 828 827 827 826 825 824 824 823 822 821 820 819 818 817 816 815 814 813 812 811 810 809 808 806 806 805 804 803 802 801 800 799 798 797 796 795 794 793 792 791 790 790 789 788 787 786 785 785 784 783 782 782 781 780 779 778 777 776 776 775 774 773 772 771
831 830 829 829 828 827 827 826 825 825 824 823 822 821 820 819 818 817 816 816 814 813 812 811 810 809 808 807 806 805 804 803 802 801 800 799 798 797 796 795 794 793 792 791 791 790 789 788 787 786 785 784 784 783 782 781 781 780 779 778 777 776 776 775 774 773 772 772 771
830 829 829 828 827 827 826 825 825 824 823 822 821 821 820 819 818 817 816 815 814 813 812 811 809 808 807 806 805 804 803 802 801 800 799 798 797 796 795 794 793 792 792 791 790 789 788 787 786 786 785 784 783 782 781 781 780 779 778 777 776 776 775 774 773 772 771 771 770
829 828 828 827 826 826 825 825 824 823 822 821 821 820 819 818 817 816 816 815 813 812 811 810 809 807 806 805 804 803 802 801 800 799 798 797 796 796 794 793 793 792 791 790 789 788 787 786 786 785 784 783 782 781 780 780 779 778 777 776 776 775 774 773 772 771 771 770 769
828 827 827 826 826 825 824 824 823 822 821 821 820 819 818 817 817 816 815 814 813 811 810 809 808 806 805 804 803 802 801 801 800 799 798 797 796 795 794 793 792 791 790 789 788 787 786 786 785 784 783 782 781 781 780 779 778 777 777 776 775 774 773 772 771 771 770 769 768
827 826 826 825 825 824 823 823 822 821 821 820 819 819 818 817 816 815 814 813 812 811 810 809 807 806 805 804 803 802 801 800 799 798 798 797 796 795 794 792 791 791 790 789 788 787 786 785 785 784 783 782 781 780 779 778 778 777 776 775 775 774 773 772 771 770 769 768 767
826 825 825 824 824 823 822 822 821 821 820 819 818 818 817 816 815 814 813 812 811 810 809 808 807 806 805 803 802 801 800 800 799 798 797 796 795 794 793 792 791 790 789 788 787 786 786 785 784 783 782 781 781 780 779 778 777 776 776 775 774 773 772 771 770 769 768 767 766
825 824 823 823 822 822 821 821 820 820 819 818 818 817 816 816 815 814 812 811 810 809 808 807 806 805 804 803 802 801 800 799 798 797 796 796 795 794 792 791 790 789 788 787 786 786 785 784 784 783 782 781 780 779 778 777 776 776 775 774 773 772 771 770 769 768 767 766 765
824 823 822 822 821 821 821 820 819 819 818 818 817 816 815 815 814 813 812 811 809 808 807 806 805 804 803 802 801 800 799 798 797 797 796 795 794 793 792 791 790 789 788 787 786 785 785 784 783 782 781 781 780 779 778 777 776 775 774 773 772 771 770 769 768 766 765 764 763
822 822 821 821 821 820 820 819 819 818 817 817 816 816 815 814 813 812 811 810 809 807 806 805 804 803 802 801 801 800 799 798 797 796 795 794 793 792 791 791 790 789 788 787 786 785 784 783 783 782 781 780 779 778 777 776 775 774 773 772 771 770 769 767 766 765 764 763 762
821 821 821 820 820 819 819 818 818 817 817 816 815 815 814 813 812 811 810 809 808 807 806 804 803 802 802 801 800 799 799 798 796 796 795 794 793 792 791 791 790 789 788 787 786 785 784 783 782 781 781 780 779 778 776 776 774 773 772 771 770 768 767 766 765 764 762 761 760
821 820 820 819 819 818 818 818 817 816 816 815 815 814 813 812 811 810 809 808 807 806 805 804 803 802 801 801 800 799 798 797 796 795 794 793 793 792 791 790 789 789 788 787 786 786 785 784 782 781 780 779 778 777 776 775 774 772 771 770 768 767 766 764 763 762 761 760 759
820 819 819 818 818 818 817 817 816 816 815 815 814 813 812 811 810 809 808 807 806 806 804 803 802 801 801 800 799 798 797 797 796 795 794 793 792 791 791 790 789 788 787 787 786 785 784 783 782 781 780 779 778 776 775 774 773 771 770 768 767 766 765 763 762 761 760 759 757
Wind_Speed
28 28 28 28 28 27 26 26 26 26 26 26 25 24 24 23 23 23 24 25 24 23 23 22 22 22 22 23 24 25 26 27 29 30 31 31 31 30 30 30 29 29 29 29 29 28 27 27 26 25 24 23 22 21 21 21 21 22 22 22 22 22 22 22 22 23 24 25 24
27 27 27 28 28 27 26 26 26 26 26 26 25 25 25 24 24 24 25 26 26 25 24 23 22 22 22 23 24 26 27 29 30 31 31 32 31 31 30 29 28 28 28 27 27 26 25 24 23 23 22 21 20 20 20 21 21 21 22 22 21 21 20 20 20 20 20 20 19
27 27 27 27 27 27 26 26 26 26 26 26 26 26 26 26 25 25 25 26 26 25 24 23 22 21 22 22 24 26 27 29 30 31 31 31 31 30 30 29 28 27 26 25 25 24 23 22 21 20 19 19 19 19 21 21 21 21 20 20 19 19 19 19 19 19 18 18 17
26 27 27 27 27 27 26 26 26 26 26 27 27 27 27 27 26 26 26 26 26 25 24 22 22 21 21 21 23 25 27 28 30 30 30 30 30 29 29 28 27 26 25 24 23 22 21 20 19 18 17 17 18 19 21 22 21 20 18 18 18 19 19 19 20 20 20 20 19
25 26 26 26 26 26 25 25 26 26 27 27 27 27 27 27 27 27 26 26 25 25 24 23 22 21 21 22 23 25 27 29 29 29 29 29 28 28 27 26 25 24 23 22 22 21 20 20 18 17 17 17 17 19 20 21 20 19 18 17 18 19 20 20 21 22 22 23 23
25 25 26 26 25 25 25 25 26 26 26 27 27 28 28 27 27 27 27 26 25 25 25 25 24 24 24 24 25 26 27 28 28 28 27 27 26 26 25 24 23 22 22 21 21 21 20 20 19 18 18 18 18 19 20 20 20 19 19 18 19 20 21 21 21 22 23 24 25
24 25 25 25 25 25 25 25 25 26 26 27 27 27 27 27 27 27 26 26 26 26 26 26 26 26 26 26 27 27 27 27 27 26 26 25 25 24 23 22 21 21 21 21 21 21 21 20 20 19 19 19 19 19 20 20 20 20 20 19 20 20 21 20 20 21 21 22 23
24 24 25 25 25 24 24 25 25 26 26 27 27 26 26 26 26 26 26 26 25 25 26 26 27 27 26 26 26 26 26 26 25 25 24 23 23 22 21 20 20 20 20 20 21 21 21 20 20 19 19 19 19 19 20 20 21 21 20 20 20 20 20 20 20 20 20 20 21
24 24 24 25 25 24 24 24 25 26 26 26 26 26 26 25 25 25 25 25 24 25 25 26 26 26 26 25 24 24 24 24 24 23 22 21 20 20 20 19 19 20 20 20 20 20 20 19 19 19 19 19 19 19 20 21 21 21 20 20 20 20 20 21 21 20 20 20 20
24 24 24 25 24 24 24 24 25 25 26 25 25 25 25 25 25 25 24 24 24 25 25 25 26 25 24 23 22 22 22 21 21 20 20 19 18 18 18 18 19 19 19 19 19 19 18 18 18 18 18 18 18 19 20 20 20 20 20 20 20 20 20 21 21 21 21 21 20
23 24 24 25 24 24 24 24 24 25 25 25 25 25 25 25 25 25 24 24 24 24 24 24 24 23 22 21 20 20 19 19 18 17 17 17 17 17 17 17 18 18 18 18 18 18 17 17 17 17 17 17 18 18 19 20 20 20 20 21 21 21 21 21 22 22 21 21 21
23 23 24 24 24 24 24 24 24 24 25 25 25 24 24 24 23 23 23 23 23 23 23 23 22 21 20 19 18 18 17 16 16 15 15 15 15 16 16 17 17 17 18 18 18 18 17 17 16 16 16 16 17 18 19 19 20 21 22 22 22 22 22 21 22 21 21 21 21
23 24 24 25 24 24 24 23 23 24 24 24 24 23 22 22 22 22 22 22 22 22 22 21 20 19 18 18 17 16 15 14 14 14 14 15 15 15 16 17 17 18 18 18 18 18 17 16 16 15 15 15 16 17 18 19 20 21 22 22 22 22 21 21 21 20 20 20 20
23 24 25 25 24 24 24 23 23 23 23 23 23 22 21 20 20 21 21 21 21 21 21 21 19 18 17 16 16 15 14 13 13 14 14 14 15 16 17 17 18 18 18 18 17 17 17 16 15 14 14 14 15 16 17 19 20 21 21 22 22 22 21 21 20 20 19 19 19
23 24 25 25 24 24 23 22 22 21 21 21 21 20 19 19 19 20 20 20 20 20 20 20 19 18 17 16 15 14 13 13 13 13 14 15 15 16 17 18 18 18 18 18 17 17 16 15 15 14 13 13 14 15 16 18 19 20 20 21 21 21 21 20 20 20 19 19 19
23 24 24 24 24 23 22 22 21 20 20 20 20 19 19 19 19 19 19 19 20 20 19 19 19 18 17 16 15 14 13 13 13 13 14 15 15 16 17 17 18 18 18 18 17 16 15 15 14 13 13 12 13 14 15 16 18 19 19 19 19 19 20 20 20 20 20 20 20
23 23 24 24 23 22 21 21 20 20 19 19 18 18 18 18 18 18 18 18 19 19 19 18 18 18 17 16 15 14 13 13 13 13 14 14 15 15 16 16 17 17 17 17 17 16 15 14 13 13 12 11 11 12 14 15 17 18 18 18 18 18 18 19 19 20 20 20 20
22 22 22 22 22 21 20 20 20 19 18 18 17 17 17 17 17 17 17 17 18 18 18 18 17 16 16 16 15 14 14 14 14 14 14 14 14 14 15 15 16 16 16 16 16 16 14 13 12 12 11 11 11 12 13 15 16 17 18 18 18 17 17 18 18 19 20 20 20
21 21 21 21 20 20 19 19 19 18 17 16 16 16 16 16 17 17 17 17 17 17 17 17 16 16 15 15 15 14 14 14 14 14 14 13 13 13 14 15 15 15 15 15 15 15 15 13 12 11 11 11 11 11 13 14 15 16 17 17 17 17 17 17 17 18 18 19 20
20 20 20 20 19 19 19 18 18 17 16 16 16 16 16 16 16 17 17 17 18 17 17 17 16 16 15 15 14 14 14 14 14 14 13 13 12 13 14 15 15 15 15 14 15 15 15 14 13 12 11 11 11 12 13 14 15 16 16 16 17 17 17 17 17 17 17 18 18
18 18 18 19 18 18 17 17 16 16 15 15 15 15 15 16 16 16 17 17 18 18 18 17 17 16 15 15 15 15 15 14 14 13 13 12 12 13 14 15 15 15 14 13 14 14 15 15 14 13 12 12 12 12 13 14 14 15 15 15 16 16 17 17 17 17 17 17 17
17 17 18 18 17 17 16 16 16 15 15 15 15 15 15 15 16 16 16 17 18 18 18 18 17 16 15 15 15 15 15 15 14 13 12 12 12 12 14 15 15 14 13 13 13 13 14 15 15 14 13 12 12 12 12 13 14 14 14 15 15 15 16 16 16 16 16 16 16
17 17 17 16 16 16 16 15 15 15 15 15 15 15 15 15 15 16 16 17 18 18 19 18 17 17 16 16 16 16 15 15 14 13 12 12 12 13 14 14 14 14 13 12 12 13 14 14 14 13 12 11 11 11 12 13 13 13 13 14 14 14 15 15 15 15 16 15 15
16 16 16 15 15 15 15 15 14 14 15 15 15 15 15 15 15 16 17 17 18 18 18 18 18 17 17 17 17 17 17 16 16 15 14 13 13 14 14 14 14 13 13 13 13 13 14 14 14 13 12 11 11 11 12 12 12 12 12 13 13 13 13 14 14 14 14 14 15
15 15 15 14 14 14 14 14 14 14 14 14 15 15 15 15 16 16 17 17 18 18 19 19 19 19 19 19 19 18 18 18 17 16 15 15 14 14 14 14 13 13 13 13 14 14 14 14 13 12 11 10 11 11 12 13 12 12 12 12 12 12 12 12 12 12 12 13 13
14 14 13 13 13 13 13 13 12 13 13 14 14 15 15 16 16 17 17 18 18 18 19 19 20 20 20 20 19 19 18 17 17 16 15 15 15 14 14 14 13 13 13 14 14 14 14 13 12 11 11 11 11 12 13 13 13 12 11 11 11 11 11 11 11 11 11 11 11
14 13 12 12 12 12 12 11 11 12 13 13 14 15 15 16 16 17 17 18 18 18 19 19 20 20 20 20 19 19 18 16 16 15 15 14 14 14 14 14 14 14 14 14 14 14 13 13 12 11 11 12 12 14 14 14 13 12 11 10 10 11 10 10 11 11 10 10 10
13 12 11 11 10 10 10 10 10 11 12 13 14 15 15 16 16 17 18 18 18 18 19 19 19 19 19 19 19 18 17 16 15 14 14 14 14 14 14 14 14 14 14 14 14 13 13 12 12 12 12 12 14 14 15 14 13 12 11 10 10 10 10 10 10 10 10 10 11
12 12 11 10 9 9 9 9 10 11 12 13 14 15 15 16 16 17 18 19 19 19 19 19 19 19 19 19 18 17 16 15 14 14 14 14 14 14 14 14 14 14 14 14 13 13 12 12 12 12 12 13 14 15 15 14 12 11 10 10 10 10 9 9 9 10 11 11 12
12 11 11 10 9 8 9 9 10 11 12 13 14 14 15 16 17 18 18 19 19 19 19 19 19 19 19 18 18 17 16 14 13 13 14 14 14 14 14 14 14 14 14 14 14 13 12 11 11 12 13 13 14 14 13 12 11 11 10 11 11 10 10 9 10 10 11 12 13
11 11 10 9 8 8 8 9 10 11 12 13 14 14 15 16 17 18 19 19 20 19 19 19 19 19 18 18 17 16 15 13 13 13 13 13 13 13 13 13 14 14 15 15 15 13 12 11 11 12 12 13 14 13 12 11 10 10 11 11 11 11 11 10 10 11 12 13 14
11 11 10 9 9 8 9 9 10 11 12 13 13 14 15 16 17 18 18 19 20 20 20 19 19 19 18 18 17 15 14 13 12 12 13 13 13 13 13 13 14 15 16 16 15 14 12 10 10 11 12 13 13 13 12 11 10 11 12 12 12 12 11 11 12 12 13 13 14
11 11 10 9 9 9 9 10 10 11 12 13 13 14 15 16 17 17 18 19 20 20 20 20 19 18 18 17 16 14 13 12 12 12 13 13 14 14 14 14 15 16 16 16 15 13 12 11 10 10 11 12 13 12 12 11 11 12 12 12 12 12 12 12 13 13 14 15 15
11 11 10 9 9 9 10 10 10 11 12 13 13 14 15 16 17 18 18 19 19 20 20 19 19 18 17 16 15 14 13 13 13 13 13 14 15 15 15 15 15 16 15 15 14 13 12 12 11 10 10 12 13 13 13 13 13 13 13 13 13 13 13 13 14 15 16 16 17
11 10 9 9 9 10 10 10 11 11 12 13 13 14 14 15 16 17 18 19 19 20 20 19 18 17 17 16 15 14 14 13 13 13 14 15 15 16 15 15 15 15 14 14 13 13 13 13 12 11 11 12 12 13 13 13 13 13 13 13 14 14 15 15 16 17 18 18 19
11 10 9 9 9 9 10 10 11 11 12 12 13 14 15 15 16 17 18 19 19 20 20 20 18 17 16 15 15 14 13 13 13 13 14 14 15 16 15 14 14 14 14 13 13 14 14 14 13 12 11 11 12 13 13 13 14 14 14 15 16 16 17 18 19 19 20 20 21
10 9 9 9 9 9 9 10 10 11 11 12 13 14 15 16 17 17 18 19 20 21 21 20 19 17 16 15 14 14 13 13 12 13 13 14 15 15 14 13 13 13 13 13 13 14 15 15 14 12 12 11 11 12 13 14 14 15 16 17 18 19 19 20 21 21 22 22 22
9 9 8 8 8 8 9 9 10 10 11 12 13 14 15 16 17 18 19 20 21 21 22 21 19 17 15 14 14 13 13 13 13 13 14 14 14 14 13 12 13 13 13 13 13 13 14 14 13 12 12 12 12 13 14 15 16 18 19 20 21 21 22 22 22 23 23 23 23
9 8 8 8 8 8 8 8 9 10 11 12 13 14 16 17 18 19 19 20 20 21 21 20 18 16 14 13 13 13 13 13 13 14 14 14 13 13 12 11 12 13 13 13 12 12 12 13 12 12 12 12 13 14 16 17 19 20 21 22 22 23 23 23 23 23 24 24 23
9 9 8 8 8 8 8 8 9 10 11 13 14 15 16 18 18 19 19 19 20 20 19 18 17 15 13 12 12 12 13 13 14 14 13 13 13 12 11 11 12 12 12 12 11 11 11 11 12 13 13 14 15 16 18 19 21 22 22 22 23 23 23 24 23 23 24 24 23
10 9 8 8 8 8 8 9 10 11 12 13 14 16 17 18 19 19 19 19 19 19 18 17 15 14 13 12 12 12 13 13 14 14 13 12 11 11 10 11 11 11 11 11 10 10 10 11 12 13 14 16 17 18 19 20 21 22 22 22 22 22 23 24 24 24 24 24 24
Wind_Direction
22 21 21 21 21 21 21 21 21 20 20 20 21 22 25 28 28 26 24 22 21 20 19 19 20 21 21 21 21 19 17 13 10 6 4 3 1 360 358 357 356 354 353 352 350 349 348 348 347 347 346 346 347 346 345 344 342 339 338 338 337 334 331 326 322 318 316 313 306
22 21 20 19 19 20 20 21 20 19 19 19 19 20 24 28 27 25 24 23 23 22 22 22 23 23 22 21 19 15 11 8 4 2 0 359 358 356 354 353 352 351 351 349 348 348 348 349 349 349 349 350 350 348 345 344 343 343 344 346 346 344 340 336 333 332 330 327 323
22 21 19 19 19 20 20 21 20 18 18 19 19 22 25 25 24 23 22 21 19 19 21 22 22 21 19 16 11 8 4 1 359 357 356 355 354 352 351 349 349 348 348 348 348 348 349 350 350 351 352 354 354 350 347 346 347 350 354 357 357 356 354 351 349 348 348 346 344
23 22 21 21 22 22 22 22 20 19 20 22 22 22 21 20 19 18 16 13 13 13 15 15 15 13 11 6 1 357 355 354 353 353 352 351 350 349 347 346 346 347 348 349 349 350 351 351 353 354 356 356 354 353 352 352 354 358 3 7 8 7 5 2 1 360 358 357 357
24 24 23 23 23 22 22 21 21 22 22 20 19 18 17 16 13 10 8 7 7 6 4 2 1 360 357 353 349 347 346 347 348 349 349 348 347 346 345 345 346 348 349 351 352 353 354 354 356 359 360 358 357 357 358 358 360 4 9 13 14 14 13 12 11 9 7 6 7
26 24 23 23 22 21 20 20 20 20 18 17 16 15 14 11 8 6 4 3 1 358 355 353 351 349 347 345 343 343 343 345 347 348 348 346 345 344 345 346 348 350 352 354 356 357 358 359 1 3 4 3 2 2 2 3 5 8 12 15 16 17 16 16 15 13 12 12 12
26 25 24 23 22 20 19 18 17 16 15 14 13 12 10 7 5 3 1 358 356 354 352 350 349 348 347 345 344 344 345 346 347 348 347 345 344 344 346 348 351 354 357 359 360 1 3 5 7 8 9 10 9 9 9 9 10 12 15 16 16 15 15 15 15 14 13 12 13
25 24 24 23 21 19 18 16 14 13 13 13 12 10 8 5 3 1 359 357 356 354 352 352 352 352 351 349 348 347 347 347 347 347 346 344 344 346 350 353 356 359 1 3 4 6 7 10 12 13 14 15 16 16 16 16 16 17 17 16 15 14 14 13 14 13 12 12 12
25 24 22 21 20 18 16 14 13 12 13 12 11 9 6 4 2 1 360 359 357 355 354 354 354 354 353 352 350 348 347 347 347 346 345 346 348 351 355 359 2 4 5 7 8 9 11 14 17 19 19 20 20 20 20 19 18 17 16 15 13 12 12 12 12 11 11 11 11
25 23 21 21 20 18 15 13 12 11 11 11 10 7 4 2 1 0 360 358 356 354 355 355 354 354 354 353 351 349 348 348 347 347 348 352 355 359 3 6 7 8 8 9 10 11 14 17 19 22 23 24 24 23 22 21 18 15 13 11 9 8 8 9 9 8 8 8 7
25 23 21 21 19 16 14 12 12 11 10 9 7 4 1 360 359 358 357 356 354 354 355 355 355 355 354 353 352 351 350 350 350 352 355 0 4 8 11 12 12 11 11 11 11 12 15 17 20 22 24 25 25 24 21 19 16 13 10 8 6 5 4 4 5 4 4 4 3
24 22 20 19 17 16 14 13 11 9 7 6 3 0 358 357 357 355 354 354 354 355 355 356 356 355 353 353 353 354 354 355 356 359 4 8 12 14 16 15 14 12 11 11 11 11 13 15 17 19 21 22 23 22 19 17 15 12 9 7 5 4 2 1 2 1 1 1 0
22 20 19 18 17 16 14 12 9 7 4 2 359 357 355 355 355 354 353 354 356 357 357 358 357 356 354 354 355 357 360 1 3 6 10 12 14 14 14 13 11 9 8 7 7 7 8 9 11 13 15 17 18 18 17 15 13 11 8 6 4 2 2 1 1 1 1 0 359
19 18 17 17 16 14 12 10 8 4 1 359 356 354 354 354 355 354 355 356 358 359 360 359 359 358 357 355 356 359 3 6 7 8 9 10 10 9 7 6 4 2 1 0 0 0 0 1 2 4 6 9 11 13 13 12 11 9 6 4 1 0 0 1 2 3 3 3 2
17 16 15 15 14 12 11 9 6 2 359 357 354 353 354 355 356 356 357 358 359 1 1 1 0 360 359 359 357 358 1 5 6 6 5 4 3 2 1 360 358 356 355 354 353 352 352 352 353 355 357 0 4 6 7 8 7 6 4 2 359 357 357 359 2 5 8 8 6
16 14 13 12 12 10 8 6 4 1 358 355 354 354 354 355 356 358 359 359 359 360 1 1 1 0 0 1 359 358 358 0 2 1 359 358 357 357 356 355 354 352 351 349 348 347 345 345 346 347 350 353 357 1 3 4 4 4 3 2 359 356 355 356 360 5 9 11 11
14 13 11 10 10 8 6 4 1 359 357 356 355 355 355 355 356 359 0 360 358 357 357 359 359 359 359 359 359 357 355 354 354 354 353 352 353 353 353 352 352 350 349 348 346 344 342 341 340 341 344 348 352 357 360 1 3 4 5 4 2 359 356 355 357 2 7 11 14
13 11 9 8 8 6 4 2 0 359 358 358 357 357 356 356 357 359 360 360 357 354 353 352 353 354 355 355 355 354 351 348 347 346 346 347 349 350 351 351 350 350 350 350 349 347 344 340 336 335 337 342 347 352 356 359 2 4 6 7 6 4 0 358 358 0 5 10 14
12 10 8 7 7 5 3 2 1 1 1 1 0 359 358 358 358 358 358 359 357 353 349 346 346 347 349 350 350 349 347 344 341 340 340 341 345 348 349 349 349 350 351 352 352 352 349 344 337 332 332 335 341 345 350 354 359 2 5 8 9 8 6 3 1 1 3 6 10
10 9 8 6 5 4 3 3 3 4 5 5 3 1 360 359 359 359 359 358 356 352 348 344 342 342 344 346 347 347 346 344 340 338 337 337 341 344 346 346 347 348 350 352 354 354 352 349 342 335 331 331 334 338 342 347 352 356 0 4 7 9 9 8 5 3 2 3 5
9 8 6 5 4 4 4 4 5 6 7 7 6 4 2 1 1 2 2 360 358 355 351 348 345 344 345 347 348 350 349 348 344 341 338 337 338 340 342 342 342 344 346 348 350 352 351 350 346 341 335 331 330 332 335 340 344 348 352 357 1 5 7 8 8 6 4 3 2
7 5 4 3 4 5 5 5 6 7 9 9 7 6 4 4 4 4 4 3 1 359 356 353 351 350 350 351 352 352 352 351 348 345 342 339 338 338 337 337 337 338 340 342 344 346 347 347 346 343 338 332 328 327 329 333 336 340 344 349 353 358 2 4 6 6 5 3 1
4 2 1 2 3 4 5 5 7 9 10 10 8 7 7 6 6 6 6 5 3 1 358 356 354 352 351 352 352 351 350 348 347 345 343 340 337 336 335 334 334 334 335 336 338 340 342 342 342 340 337 331 326 323 323 326 330 334 338 342 346 350 354 358 1 2 3 1 360
360 359 359 1 3 4 5 6 8 10 11 10 9 9 8 7 7 6 6 5 3 0 358 355 352 349 348 347 347 347 346 345 343 342 340 338 336 335 334 333 332 332 331 332 333 334 336 337 337 335 332 328 322 319 319 321 325 329 334 339 342 346 348 351 354 356 358 357 356
356 356 357 360 2 4 5 6 9 12 12 11 9 9 8 7 6 5 4 2 1 359 356 353 350 347 345 343 343 343 343 343 342 341 339 337 336 335 334 333 332 331 330 329 329 330 331 333 333 332 329 324 319 317 317 319 322 327 333 338 341 343 344 344 346 348 350 351 351
353 353 355 358 1 2 4 7 11 12 12 10 9 8 7 5 4 2 0 359 357 356 354 352 350 348 346 343 342 341 341 341 341 339 338 336 334 333 333 333 332 330 329 328 328 328 329 330 331 330 328 323 319 317 317 319 322 328 334 339 340 341 340 338 337 338 341 343 343
349 350 353 356 359 0 2 6 9 10 9 7 6 5 4 2 0 358 356 355 353 352 351 351 350 348 347 345 342 340 339 338 337 335 334 332 331 330 330 330 331 330 329 329 329 328 328 329 329 329 327 324 321 319 319 320 324 330 336 339 340 338 335 333 332 331 332 333 334
345 346 348 352 356 358 0 4 6 6 4 3 2 1 360 358 356 354 353 351 350 349 348 348 348 347 346 344 342 339 336 334 332 331 330 329 328 328 329 330 331 332 332 332 332 331 330 328 327 326 325 324 323 321 321 322 327 332 337 338 336 334 331 329 329 329 329 329 329
339 340 343 346 351 354 357 360 0 359 358 357 356 356 355 354 352 351 350 348 348 347 346 345 344 344 343 342 340 338 335 332 330 329 329 329 329 330 331 332 333 333 334 334 334 334 331 327 324 322 322 322 322 321 321 322 326 331 333 332 330 326 324 323 325 328 330 330 329
333 334 336 339 344 349 353 354 353 352 351 350 350 350 350 350 349 348 347 347 347 346 345 343 342 342 341 340 338 336 333 331 330 330 330 330 330 331 332 333 333 333 333 334 334 333 331 327 322 320 320 320 320 319 319 320 324 326 326 324 321 319 317 317 319 323 326 328 329
327 328 330 333 337 342 344 345 345 345 344 344 344 345 346 347 347 346 346 345 345 345 344 343 342 341 340 339 337 335 333 332 331 331 331 331 332 333 333 333 333 333 333 332 331 330 328 325 322 321 319 317 316 316 317 318 320 320 319 316 314 312 312 313 315 318 321 324 326
322 323 324 328 331 334 337 337 338 337 337 338 339 341 343 344 344 344 344 343 343 344 344 344 343 341 340 339 337 336 334 333 332 332 332 332 333 333 334 334 334 334 333 332 329 327 325 324 324 323 319 314 312 313 315 316 317 315 313 311 310 309 310 312 313 316 318 320 323
317 318 320 323 326 329 330 331 330 331 332 333 336 338 340 341 342 342 342 342 342 342 343 343 343 341 340 339 338 337 335 333 332 332 331 332 333 334 334 334 334 334 333 332 330 327 326 326 328 326 319 311 310 312 314 315 313 311 310 309 309 309 311 312 314 316 317 319 320
312 313 316 319 322 325 325 325 325 326 328 330 334 337 339 339 339 339 340 340 340 340 341 341 341 340 340 339 338 337 335 333 332 331 332 333 334 334 335 334 334 334 333 333 332 331 331 332 334 328 317 310 310 312 313 312 311 310 310 310 310 311 312 313 315 316 318 319 320
309 310 312 316 319 320 320 321 323 325 328 331 334 336 338 338 337 337 338 338 337 337 337 338 338 338 337 338 338 337 335 333 332 332 333 334 335 336 336 334 334 334 335 336 337 338 339 339 338 329 318 312 311 311 310 310 310 311 312 313 313 314 315 316 316 317 318 319 320
307 307 309 313 315 317 319 321 325 328 331 333 335 336 336 336 336 336 337 336 335 335 335 335 335 334 334 335 336 336 335 333 332 333 334 335 336 337 336 336 335 336 339 342 343 343 343 343 341 333 324 317 313 311 310 311 314 316 318 318 318 318 319 319 319 319 319 319 320
304 304 306 308 311 315 320 325 329 332 334 336 336 336 335 335 335 337 338 337 335 334 334 334 332 331 331 333 334 335 334 334 335 336 337 337 338 338 339 339 339 341 344 348 348 346 345 346 344 338 330 323 319 316 316 317 319 321 322 323 322 322 322 321 321 320 320 320 321
301 299 300 303 308 315 323 330 333 335 336 337 336 335 334 334 336 337 339 338 336 335 334 333 332 330 328 329 332 334 335 336 337 339 339 339 340 341 342 343 344 347 350 354 353 351 349 349 348 343 335 330 327 326 325 325 325 325 325 324 324 323 323 322 322 322 322 322 323
296 293 294 299 308 317 326 332 335 336 336 334 333 332 332 333 335 337 339 338 337 336 335 334 332 330 328 328 331 335 337 338 339 340 341 341 342 343 344 346 346 348 351 355 356 356 355 353 351 347 342 337 335 332 330 329 328 327 326 326 326 325 325 324 325 325 325 325 326
292 290 292 298 308 318 326 331 333 332 331 330 330 330 331 333 335 336 337 337 337 336 335 334 333 332 330 330 333 337 339 339 339 340 341 342 342 342 343 344 345 345 348 352 356 358 356 354 352 349 347 344 340 336 333 330 329 328 327 328 329 328 328 327 328 328 328 329 329
290 289 292 299 309 317 323 326 328 327 327 326 327 328 330 331 333 334 335 336 336 336 335 335 335 335 335 334 337 339 341 340 340 341 342 343 342 342 343 343 343 343 344 348 352 354 353 351 349 347 346 344 340 336 333 331 330 330 330 330 331 331 331 330 331 331 331 331 331